Home   Weather   Knoxville   Past weeks
Flag for USA

Past Weather in Knoxville, Tennessee, USA — Yesterday and Last 2 Weeks

Now
84 °F

Thundershowers. Cloudy.


Feels Like: 90 °F
Forecast: 85 / 70 °F
Wind: 16 mph from Southwest

Location: McGhee Tyson Airport

Current Time: Jun 24, 2019 at 6:14:30 pm

Latest Report: Jun 24, 2019 at 5:00 pm


Visibility: 10 mi

Pressure: 29.81 "Hg

Humidity: 70%

Dew Point: 73 °F

Location of KnoxvilleLocation

Past Weather in Knoxville — Graph

°F

Knoxville Temperature Yesterday

Maximum temperature yesterday: 86 °F (at 5:53 pm)
Minimum temperature yesterday: 69 °F (at 2:53 am)
Average temperature yesterday: 75 °F

High & Low Weather Summary for the Past Weeks

 TemperatureHumidityPressure
High89 °F (Jun 16, 3:53 pm)97% (Jun 10, 12:53 am)30.21 "Hg (Jun 10, 12:53 am)
Low52 °F (Jun 14, 6:53 am)29% (Jun 14, 3:53 pm)29.70 "Hg (Jun 19, 5:53 pm)
Average72 °F75%29.96 "Hg
* Reported Jun 9 5:53 pm — Jun 24 5:00 pm, Knoxville. Weather by CustomWeather, © 2019

Note: Actual official high and low records may vary slightly from our data, if they occured in-between our weather recording intervals... More about our weather records

Advertising

Knoxville Weather History for the Previous 24 Hours

Scroll right to see more
 ConditionsComfort  
Time TempWeatherWind HumidityBarometerVisibility
5:00 pm
Mon, Jun 24
84 °FThundershowers. Cloudy.16 mph70%29.81 "Hg10 mi
3:53 pm84 °FMostly cloudy.15 mph61%29.79 "Hg10 mi
2:53 pm85 °FMostly cloudy.17 mph57%29.80 "Hg10 mi
1:53 pm84 °FMostly cloudy.21 mph57%29.80 "Hg10 mi
12:53 pm85 °FCloudy.22 mph59%29.84 "Hg10 mi
11:53 am84 °FBroken clouds.23 mph61%29.87 "Hg10 mi
10:53 am82 °FPartly sunny.20 mph63%29.88 "Hg10 mi
9:53 am82 °FPartly sunny.17 mph65%29.89 "Hg10 mi
8:53 am79 °FScattered clouds.5 mph74%29.90 "Hg10 mi
7:53 am74 °FScattered clouds.3 mph85%29.90 "Hg10 mi
6:53 am73 °FScattered clouds.5 mph84%29.88 "Hg10 mi
5:53 am72 °FPassing clouds.5 mph87%29.85 "Hg10 mi
4:53 am73 °FPassing clouds.3 mph84%29.86 "Hg10 mi
3:53 am72 °FPassing clouds.No wind91%29.88 "Hg10 mi
2:53 am72 °FPassing clouds.No wind93%29.90 "Hg10 mi
1:53 am73 °FPassing clouds.No wind90%29.93 "Hg10 mi
12:53 am75 °FPassing clouds.3 mph88%29.93 "Hg10 mi
11:53 pm
Sun, Jun 23
75 °FPassing clouds.No wind88%29.94 "Hg10 mi
10:53 pm78 °FPassing clouds.No wind79%29.94 "Hg10 mi
9:53 pm77 °FPassing clouds.6 mph82%29.93 "Hg10 mi
8:53 pm80 °FBroken clouds.6 mph74%29.91 "Hg10 mi
7:53 pm82 °FScattered clouds.9 mph70%29.93 "Hg10 mi
6:53 pm85 °FBroken clouds.10 mph63%29.93 "Hg10 mi
Weather by CustomWeather, © 2019

See weather overview